This demonstration page uses our WeatherBlox Daily Observations layout. Learn more.

Left ArrowRight Arrow

Hourly Observations for November 26, 2020

Temp ( °F °C ) Dew Point ( °F °C ) Humidity (%) Winds ( mph kmh ) Pressure ( in mb ) Visibility ( mi km ) Precip ( " mm )
12:51 am 00:51 Clear 40 4.4 13 -10.6 33 33 SSE 3 6 29.99 1016 10 16 0.00 0.00
1:51 am 01:51 Clear 37 2.8 11 -11.7 34 34 ESE 3 6 29.98 1015 10 16 0.00 0.00
2:51 am 02:51 Clear 37 2.8 11 -11.7 34 34 SSE 7 11 29.97 1015 10 16 0.00 0.00
3:51 am 03:51 Clear 35 1.7 11 -11.7 37 37 SE 5 7 29.97 1015 10 16 0.00 0.00
4:51 am 04:51 Clear 34 1.1 11 -11.7 38 38 E 3 6 29.98 1015 10 16 0.00 0.00
5:51 am 05:51 Clear 34 1.1 11 -11.7 38 38 Calm 30.01 1016 10 16 0.00 0.00
6:51 am 06:51 Clear 32 0 11 -11.7 41 41 ESE 5 7 30.02 1017 10 16 0.00 0.00
7:51 am 07:51 Sunny 37 2.8 12 -11.1 36 36 E 3 6 30.03 1017 10 16 0.00 0.00
8:51 am 08:51 Sunny 46 7.8 15 -9.4 29 29 SSE 7 11 30.03 1017 10 16 0.00 0.00
9:51 am 09:51 Sunny 52 11.1 16 -8.9 24 24 SSE 6 9 30.02 1017 10 16 0.00 0.00
10:51 am 10:51 Sunny 57 13.9 17 -8.3 21 21 S 5 7 30.00 1016 10 16 0.00 0.00
11:51 am 11:51 Sunny 61 16.1 17 -8.3 18 18 S 6 9 29.96 1014 10 16 0.00 0.00
12:51 pm 12:51 Sunny 64 17.8 18 -7.8 17 17 Calm 29.92 1013 10 16 0.00 0.00
1:51 pm 13:51 Sunny 66 18.9 18 -7.8 16 16 Calm 29.89 1012 10 16 0.00 0.00
2:51 pm 14:51 Sunny 70 21.1 19 -7.2 14 14 N 8 13 29.86 1011 10 16 0.00 0.00
3:51 pm 15:51 Sunny 69 20.6 19 -7.2 15 15 WNW 10 17 29.85 1011 10 16 0.00 0.00
4:51 pm 16:51 Sunny 66 18.9 18 -7.8 16 16 WNW 10 17 29.86 1011 10 16 0.00 0.00
5:51 pm 17:51 Clear 59 15 18 -7.8 20 20 WNW 8 13 29.88 1012 10 16 0.00 0.00
6:51 pm 18:51 Clear 52 11.1 16 -8.9 24 24 NW 5 7 29.91 1013 10 16 0.00 0.00
7:51 pm 19:51 Clear 50 10 17 -8.3 27 27 WNW 7 11 29.91 1013 10 16 0.00 0.00
8:51 pm 20:51 Clear 48 8.9 17 -8.3 29 29 NNE 3 6 29.92 1013 10 16 0.00 0.00
9:51 pm 21:51 Clear 49 9.4 17 -8.3 28 28 ENE 5 7 29.91 1013 10 16 0.00 0.00
10:51 pm 22:51 Clear 44 6.7 16 -8.9 32 32 SE 3 6 29.92 1013 10 16 0.00 0.00
11:51 pm 23:51 Clear 42 5.6 16 -8.9 35 35 ENE 7 11 29.91 1013 10 16 0.00 0.00

Powered by AerisWeather